User: anonymous   Login
Location: Ash Swamp
(41.5170°N, 74.6157°W)
Time: 08:53:52
(UTC+00:00)
Language:

Cosmos 1743 - Orbit

View from above orbital plane
View from above orbital plane
View from above satellite
View from above satellite

Ground track
Ground track

The orbit data is extracted from the following two-line orbital elements,

1 16719U 86034A   20272.73224756 +.00001061 +00000-0 +53843-4 0  9999
2 16719 082.5498 256.2335 0013735 087.4770 085.0793 15.15747385877077
Epoch (UTC): 28 September 2020 17:34:26
Eccentricity: 0.0013735
inclination: 82.5498°
perigee height: 509 km
apogee height: 528 km
right ascension of ascending node: 256.2335°
argument of perigee: 87.4770°
revolutions per day: 15.15747385
mean anomaly at epoch: 85.0793°
orbit number at epoch: 87707

The dashed part of the orbit path shows where the satellite is in the earth's shadow,  

DLR